TimeMST,TemperatureF,Dew PointF,Humidity,Sea Level PressureIn,VisibilityMPH,Wind Direction,Wind SpeedMPH,Gust SpeedMPH,PrecipitationIn,Events,Conditions,WindDirDegrees,DateUTC
12:49 AM,24.8,23.0,93,30.04,10.0,East,5.8,-,N/A,,Overcast,80,2014-01-08 07:49:00
12:52 AM,25.0,23.0,92,30.13,10.0,East,4.6,-,N/A,,Overcast,80,2014-01-08 07:52:00
1:52 AM,26.1,23.0,88,30.14,10.0,East,3.5,-,N/A,,Overcast,90,2014-01-08 08:52:00
2:52 AM,27.0,24.1,89,30.14,9.0,Calm,Calm,-,0.00,Snow,Light Snow,0,2014-01-08 09:52:00
3:52 AM,27.0,25.0,92,30.14,10.0,Calm,Calm,-,0.00,,Overcast,0,2014-01-08 10:52:00
4:02 AM,28.4,24.8,86,30.05,10.0,Calm,Calm,-,N/A,,Overcast,0,2014-01-08 11:02:00
4:52 AM,28.9,25.0,85,30.13,10.0,Calm,Calm,-,N/A,,Overcast,0,2014-01-08 11:52:00
5:52 AM,30.0,26.1,85,30.12,10.0,SSW,6.9,-,N/A,,Overcast,200,2014-01-08 12:52:00
6:52 AM,28.0,24.1,85,30.15,10.0,SSW,5.8,-,N/A,,Overcast,210,2014-01-08 13:52:00
7:52 AM,28.9,25.0,85,30.16,10.0,SSW,11.5,-,N/A,,Overcast,200,2014-01-08 14:52:00
8:52 AM,30.0,25.0,82,30.17,10.0,South,13.8,-,N/A,,Overcast,190,2014-01-08 15:52:00
9:52 AM,30.9,24.1,76,30.18,10.0,South,18.4,23.0,N/A,,Mostly Cloudy,190,2014-01-08 16:52:00
10:52 AM,32.0,25.0,75,30.15,10.0,South,18.4,24.2,N/A,,Clear,190,2014-01-08 17:52:00
11:52 AM,33.1,26.1,75,30.13,10.0,SSW,16.1,23.0,N/A,,Overcast,200,2014-01-08 18:52:00
12:52 PM,34.0,27.0,75,30.09,10.0,SSW,18.4,-,0.01,,Clear,200,2014-01-08 19:52:00
1:52 PM,36.0,27.0,70,30.08,10.0,SSW,18.4,26.5,N/A,,Clear,200,2014-01-08 20:52:00
2:52 PM,35.1,26.1,70,30.08,10.0,SSW,11.5,-,N/A,,Clear,200,2014-01-08 21:52:00
3:52 PM,34.0,25.0,70,30.06,10.0,South,6.9,-,N/A,,Clear,180,2014-01-08 22:52:00
4:52 PM,32.0,23.0,69,30.06,10.0,South,10.4,-,N/A,,Clear,190,2014-01-08 23:52:00
5:52 PM,32.0,23.0,69,30.05,10.0,South,15.0,-,N/A,,Clear,180,2014-01-09 00:52:00
6:52 PM,32.0,21.9,66,30.04,10.0,South,19.6,26.5,N/A,,Clear,180,2014-01-09 01:52:00
7:52 PM,30.9,21.0,67,30.03,10.0,South,23.0,29.9,N/A,,Clear,180,2014-01-09 02:52:00
8:52 PM,30.0,21.0,69,30.03,10.0,South,18.4,24.2,N/A,,Clear,190,2014-01-09 03:52:00
9:52 PM,28.9,21.0,72,30.02,10.0,SSW,18.4,29.9,N/A,,Clear,200,2014-01-09 04:52:00
10:52 PM,28.0,21.0,75,30.00,10.0,SSW,18.4,24.2,N/A,,Clear,200,2014-01-09 05:52:00
11:52 PM,28.0,21.0,75,29.98,10.0,South,16.1,-,N/A,,Clear,190,2014-01-09 06:52:00